Time,TemperatureF,DewpointF,PressureIn,WindDirection,WindDirectionDegrees,WindSpeedMPH,WindSpeedGustMPH,Humidity,HourlyPrecipIn,Conditions,Clouds,dailyrainin,SoftwareType,DateUTC
2013-03-25 00:00:00,37.7,24.3,29.69,SE,136,0.0,1.0,58,0.00,,---,0.00,VWS V14.01,2013-03-25 04:00:00,
2013-03-25 00:01:00,37.7,24.3,29.69,SE,136,0.0,1.0,58,0.00,,---,0.00,VWS V14.01,2013-03-25 04:01:00,
2013-03-25 00:07:00,37.6,24.2,29.69,SE,136,0.0,1.0,58,0.00,,---,0.00,VWS V14.01,2013-03-25 04:07:00,
2013-03-25 00:12:00,37.7,24.3,29.69,SE,136,0.0,1.0,58,0.00,,---,0.00,VWS V14.01,2013-03-25 04:12:00,
2013-03-25 00:15:00,37.6,24.2,29.69,SE,136,0.0,1.0,58,0.00,,---,0.00,VWS V14.01,2013-03-25 04:15:00,
2013-03-25 00:17:00,37.6,24.2,29.69,SE,136,0.0,1.0,58,0.00,,---,0.00,VWS V14.01,2013-03-25 04:17:00,
2013-03-25 00:23:00,37.6,24.2,29.69,SE,136,0.0,1.0,58,0.00,,---,0.00,VWS V14.01,2013-03-25 04:23:00,
2013-03-25 00:28:00,37.6,24.2,29.69,SE,136,0.0,1.0,58,0.00,,---,0.00,VWS V14.01,2013-03-25 04:28:00,
2013-03-25 00:30:00,37.6,24.2,29.68,SE,136,0.0,1.0,58,0.00,,---,0.00,VWS V14.01,2013-03-25 04:30:00,
2013-03-25 00:33:00,37.6,24.2,29.69,SE,136,0.0,0.0,58,0.00,,---,0.00,VWS V14.01,2013-03-25 04:33:00,
2013-03-25 00:38:00,37.6,24.2,29.69,SE,136,0.0,0.0,58,0.00,,---,0.00,VWS V14.01,2013-03-25 04:38:00,
2013-03-25 00:43:00,37.5,24.5,29.69,SE,136,0.0,0.0,59,0.00,,---,0.00,VWS V14.01,2013-03-25 04:43:00,
2013-03-25 00:45:00,37.5,24.5,29.68,SE,136,0.0,0.0,59,0.00,,---,0.00,VWS V14.01,2013-03-25 04:45:00,
2013-03-25 00:48:00,37.6,24.6,29.69,SE,136,0.0,0.0,59,0.00,,---,0.00,VWS V14.01,2013-03-25 04:48:00,
2013-03-25 00:54:00,37.5,24.5,29.69,SE,136,0.0,0.0,59,0.00,,---,0.00,VWS V14.01,2013-03-25 04:54:00,
2013-03-25 00:59:00,37.5,24.1,29.69,SE,136,0.0,1.0,58,0.00,,---,0.00,VWS V14.01,2013-03-25 04:59:00,
2013-03-25 01:00:00,37.5,24.1,29.69,SE,136,0.0,1.0,58,0.00,,---,0.00,VWS V14.01,2013-03-25 05:00:00,
2013-03-25 01:04:00,37.5,24.5,29.69,SE,136,0.0,1.0,59,0.00,,---,0.00,VWS V14.01,2013-03-25 05:04:00,
2013-03-25 01:09:00,37.5,24.5,29.69,SE,136,0.0,1.0,59,0.00,,---,0.00,VWS V14.01,2013-03-25 05:09:00,
2013-03-25 01:14:00,37.5,24.5,29.69,SE,136,0.0,1.0,59,0.00,,---,0.00,VWS V14.01,2013-03-25 05:14:00,
2013-03-25 01:15:00,37.6,24.6,29.69,SE,136,0.0,1.0,59,0.00,,---,0.00,VWS V14.01,2013-03-25 05:15:00,
2013-03-25 01:20:00,37.5,24.5,29.69,SE,136,0.0,0.0,59,0.00,,---,0.00,VWS V14.01,2013-03-25 05:20:00,
2013-03-25 01:25:00,37.3,24.7,29.69,SE,136,0.0,0.0,60,0.00,,---,0.00,VWS V14.01,2013-03-25 05:25:00,
2013-03-25 01:30:00,37.4,24.8,29.69,SE,136,0.0,2.0,60,0.00,,---,0.00,VWS V14.01,2013-03-25 05:30:00,
2013-03-25 01:35:00,37.4,24.8,29.69,SE,136,0.0,0.0,60,0.00,,---,0.00,VWS V14.01,2013-03-25 05:35:00,
2013-03-25 01:40:00,37.4,24.8,29.69,SE,135,0.0,2.0,60,0.00,,---,0.00,VWS V14.01,2013-03-25 05:40:00,
2013-03-25 01:45:00,37.4,24.8,29.69,SE,136,0.0,2.0,60,0.00,,---,0.00,VWS V14.01,2013-03-25 05:45:00,
2013-03-25 01:50:00,37.4,24.8,29.68,SE,135,0.0,1.0,60,0.00,,---,0.00,VWS V14.01,2013-03-25 05:50:00,
2013-03-25 01:55:00,37.4,24.8,29.68,SE,135,0.0,1.0,60,0.00,,---,0.00,VWS V14.01,2013-03-25 05:55:00,
2013-03-25 02:00:00,37.4,24.8,29.68,SE,135,0.0,1.0,60,0.00,,---,0.00,VWS V14.01,2013-03-25 06:00:00,
2013-03-25 02:01:00,37.4,24.8,29.68,SE,135,0.0,1.0,60,0.00,,---,0.00,VWS V14.01,2013-03-25 06:01:00,
2013-03-25 02:06:00,37.3,24.7,29.67,ESE,122,0.0,3.0,60,0.00,,---,0.00,VWS V14.01,2013-03-25 06:06:00,
2013-03-25 02:11:00,37.2,25.0,29.67,ESE,121,0.0,4.0,61,0.00,,---,0.00,VWS V14.01,2013-03-25 06:11:00,
2013-03-25 02:15:00,37.2,25.0,29.67,ESE,119,3.0,4.0,61,0.00,,---,0.00,VWS V14.01,2013-03-25 06:15:00,
2013-03-25 02:17:00,37.2,25.0,29.67,ESE,119,4.0,4.0,61,0.00,,---,0.00,VWS V14.01,2013-03-25 06:17:00,
2013-03-25 02:22:00,37.1,24.9,29.66,East,86,5.0,6.0,61,0.00,,---,0.00,VWS V14.01,2013-03-25 06:22:00,
2013-03-25 02:27:00,37.2,25.4,29.66,ESE,118,1.0,7.0,62,0.00,,---,0.00,VWS V14.01,2013-03-25 06:27:00,
2013-03-25 02:30:00,37.2,25.4,29.65,East,97,3.0,7.0,62,0.00,,---,0.00,VWS V14.01,2013-03-25 06:30:00,
2013-03-25 02:32:00,37.2,25.4,29.65,East,94,1.0,5.0,62,0.00,,---,0.00,VWS V14.01,2013-03-25 06:32:00,
2013-03-25 02:37:00,37.2,25.4,29.66,East,81,0.0,6.0,62,0.00,,---,0.00,VWS V14.01,2013-03-25 06:37:00,
2013-03-25 02:42:00,37.2,25.4,29.66,East,80,0.0,6.0,62,0.00,,---,0.00,VWS V14.01,2013-03-25 06:42:00,
2013-03-25 02:45:00,37.2,25.4,29.65,East,80,0.0,6.0,62,0.00,,---,0.00,VWS V14.01,2013-03-25 06:45:00,
2013-03-25 02:47:00,37.2,25.8,29.65,East,80,0.0,3.0,63,0.00,,---,0.00,VWS V14.01,2013-03-25 06:47:00,
2013-03-25 02:53:00,37.1,25.7,29.65,NE,54,5.0,5.0,63,0.00,,---,0.00,VWS V14.01,2013-03-25 06:53:00,
2013-03-25 02:58:00,37.1,25.7,29.64,ENE,61,4.0,7.0,63,0.00,,---,0.00,VWS V14.01,2013-03-25 06:58:00,
2013-03-25 03:00:00,37.1,26.1,29.64,ENE,59,5.0,7.0,64,0.00,,---,0.00,VWS V14.01,2013-03-25 07:00:00,
2013-03-25 03:03:00,37.1,26.1,29.64,ENE,59,0.0,4.0,64,0.00,,---,0.00,VWS V14.01,2013-03-25 07:03:00,
2013-03-25 03:08:00,37.0,26.0,29.63,ENE,59,2.0,4.0,64,0.00,,---,0.00,VWS V14.01,2013-03-25 07:08:00,
2013-03-25 03:13:00,37.1,26.1,29.63,ENE,60,3.0,4.0,64,0.00,,---,0.00,VWS V14.01,2013-03-25 07:13:00,
2013-03-25 03:15:00,37.1,26.1,29.63,ENE,61,4.0,5.0,64,0.00,,---,0.00,VWS V14.01,2013-03-25 07:15:00,
2013-03-25 03:18:00,37.1,26.1,29.63,ENE,61,3.0,7.0,64,0.00,,---,0.00,VWS V14.01,2013-03-25 07:18:00,
2013-03-25 03:23:00,37.1,26.1,29.62,ENE,76,3.0,7.0,64,0.00,,---,0.00,VWS V14.01,2013-03-25 07:23:00,
2013-03-25 03:28:00,37.1,26.4,29.62,NE,36,2.0,8.0,65,0.00,,---,0.00,VWS V14.01,2013-03-25 07:28:00,
2013-03-25 03:30:00,37.1,26.4,29.62,NE,36,1.0,8.0,65,0.00,,---,0.00,VWS V14.01,2013-03-25 07:30:00,
2013-03-25 03:34:00,37.1,26.4,29.62,NE,38,3.0,3.0,65,0.00,,---,0.00,VWS V14.01,2013-03-25 07:34:00,
2013-03-25 03:39:00,37.2,26.5,29.62,NE,56,4.0,4.0,65,0.00,,---,0.00,VWS V14.01,2013-03-25 07:39:00,
2013-03-25 03:44:00,37.2,26.5,29.61,East,98,7.0,7.0,65,0.00,,---,0.00,VWS V14.01,2013-03-25 07:44:00,
2013-03-25 03:45:00,37.3,26.6,29.61,East,85,2.0,8.0,65,0.00,,---,0.00,VWS V14.01,2013-03-25 07:45:00,
2013-03-25 03:49:00,37.3,26.6,29.61,East,94,3.0,7.0,65,0.00,,---,0.00,VWS V14.01,2013-03-25 07:49:00,
2013-03-25 03:54:00,37.3,26.6,29.60,ENE,70,3.0,7.0,65,0.00,,---,0.00,VWS V14.01,2013-03-25 07:54:00,
2013-03-25 03:59:00,37.3,26.6,29.60,East,84,5.0,7.0,65,0.00,,---,0.00,VWS V14.01,2013-03-25 07:59:00,
2013-03-25 04:00:00,37.3,26.6,29.60,NE,49,7.0,7.0,65,0.00,,---,0.00,VWS V14.01,2013-03-25 08:00:00,
2013-03-25 04:04:00,37.4,26.4,29.60,ENE,69,3.0,8.0,64,0.00,,---,0.00,VWS V14.01,2013-03-25 08:04:00,
2013-03-25 04:10:00,37.4,26.4,29.60,ENE,73,8.0,8.0,64,0.00,,---,0.00,VWS V14.01,2013-03-25 08:10:00,
2013-03-25 04:15:00,37.5,26.1,29.59,ENE,58,3.0,8.0,63,0.00,,---,0.00,VWS V14.01,2013-03-25 08:15:00,
2013-03-25 04:20:00,37.5,26.1,29.59,East,86,2.0,7.0,63,0.00,,---,0.00,VWS V14.01,2013-03-25 08:20:00,
2013-03-25 04:25:00,37.6,25.8,29.59,East,84,2.0,7.0,62,0.00,,---,0.00,VWS V14.01,2013-03-25 08:25:00,
2013-03-25 04:30:00,37.7,25.9,29.59,East,90,3.0,7.0,62,0.00,,---,0.00,VWS V14.01,2013-03-25 08:30:00,
2013-03-25 04:35:00,37.7,25.5,29.59,ENE,72,5.0,8.0,61,0.00,,---,0.00,VWS V14.01,2013-03-25 08:35:00,
2013-03-25 04:40:00,37.8,25.6,29.59,ENE,69,8.0,10.0,61,0.00,,---,0.00,VWS V14.01,2013-03-25 08:40:00,
2013-03-25 04:45:00,37.8,25.6,29.58,East,94,6.0,11.0,61,0.00,,---,0.00,VWS V14.01,2013-03-25 08:45:00,
2013-03-25 04:51:00,37.9,25.3,29.58,ESE,104,4.0,9.0,60,0.00,,---,0.00,VWS V14.01,2013-03-25 08:51:00,
2013-03-25 04:56:00,38.0,25.0,29.58,ENE,63,10.0,10.0,59,0.00,,---,0.00,VWS V14.01,2013-03-25 08:56:00,
2013-03-25 05:00:00,38.1,25.1,29.58,ENE,78,4.0,10.0,59,0.00,,---,0.00,VWS V14.01,2013-03-25 09:00:00,
2013-03-25 05:02:00,38.1,25.1,29.58,ENE,74,4.0,4.0,59,0.00,,---,0.00,VWS V14.01,2013-03-25 09:02:00,
2013-03-25 05:07:00,38.3,24.8,29.58,ENE,75,8.0,10.0,58,0.00,,---,0.00,VWS V14.01,2013-03-25 09:07:00,
2013-03-25 05:12:00,38.4,24.5,29.59,East,82,7.0,11.0,57,0.00,,---,0.00,VWS V14.01,2013-03-25 09:12:00,
2013-03-25 05:15:00,38.4,24.5,29.59,East,101,3.0,11.0,57,0.00,,---,0.00,VWS V14.01,2013-03-25 09:15:00,
2013-03-25 05:17:00,38.4,24.5,29.59,ENE,77,4.0,5.0,57,0.00,,---,0.00,VWS V14.01,2013-03-25 09:17:00,
2013-03-25 05:22:00,38.5,24.6,29.59,East,82,1.0,9.0,57,0.00,,---,0.00,VWS V14.01,2013-03-25 09:22:00,
2013-03-25 05:29:00,38.5,24.6,29.59,East,85,8.0,15.0,57,0.00,,---,0.00,VWS V14.01,2013-03-25 09:29:00,
2013-03-25 05:30:00,38.5,24.6,29.59,ENE,57,3.0,15.0,57,0.00,,---,0.00,VWS V14.01,2013-03-25 09:30:00,
2013-03-25 05:34:00,38.6,24.7,29.59,East,92,5.0,7.0,57,0.00,,---,0.00,VWS V14.01,2013-03-25 09:34:00,
2013-03-25 05:39:00,38.5,24.6,29.59,East,80,8.0,11.0,57,0.00,,---,0.00,VWS V14.01,2013-03-25 09:39:00,
2013-03-25 05:44:00,38.5,24.6,29.59,ENE,77,7.0,13.0,57,0.00,,---,0.00,VWS V14.01,2013-03-25 09:44:00,
2013-03-25 05:45:00,38.4,24.5,29.59,ENE,64,4.0,13.0,57,0.00,,---,0.00,VWS V14.01,2013-03-25 09:45:00,
2013-03-25 05:49:00,38.4,24.5,29.59,NE,56,6.0,8.0,57,0.00,,---,0.00,VWS V14.01,2013-03-25 09:49:00,
2013-03-25 05:55:00,38.4,24.5,29.59,ESE,103,10.0,11.0,57,0.00,,---,0.00,VWS V14.01,2013-03-25 09:55:00,
2013-03-25 06:00:00,38.4,24.5,29.59,East,93,3.0,13.0,57,0.00,,---,0.00,VWS V14.01,2013-03-25 10:00:00,
2013-03-25 06:05:00,38.4,24.5,29.58,ENE,58,8.0,14.0,57,0.00,,---,0.00,VWS V14.01,2013-03-25 10:05:00,
2013-03-25 06:10:00,38.4,24.5,29.58,East,93,9.0,14.0,57,0.00,,---,0.00,VWS V14.01,2013-03-25 10:10:00,
2013-03-25 06:15:00,38.4,24.5,29.58,ENE,61,8.0,15.0,57,0.00,,---,0.00,VWS V14.01,2013-03-25 10:15:00,
2013-03-25 06:20:00,38.3,24.8,29.58,ENE,65,8.0,15.0,58,0.00,,---,0.00,VWS V14.01,2013-03-25 10:20:00,
2013-03-25 06:26:00,38.2,25.1,29.57,East,94,3.0,15.0,59,0.00,,---,0.00,VWS V14.01,2013-03-25 10:26:00,
2013-03-25 06:30:00,38.2,25.1,29.57,ENE,76,10.0,16.0,59,0.00,,---,0.00,VWS V14.01,2013-03-25 10:30:00,
2013-03-25 06:32:00,38.2,25.1,29.57,East,82,14.0,14.0,59,0.00,,---,0.00,VWS V14.01,2013-03-25 10:32:00,
2013-03-25 06:37:00,38.1,25.5,29.57,ENE,63,5.0,15.0,60,0.00,,---,0.00,VWS V14.01,2013-03-25 10:37:00,
2013-03-25 06:42:00,38.1,25.5,29.57,ENE,75,2.0,15.0,60,0.00,,---,0.00,VWS V14.01,2013-03-25 10:42:00,
2013-03-25 06:45:00,38.0,25.8,29.56,ENE,65,9.0,15.0,61,0.00,,---,0.00,VWS V14.01,2013-03-25 10:45:00,
2013-03-25 06:47:00,38.0,25.8,29.57,ENE,61,10.0,10.0,61,0.00,,---,0.00,VWS V14.01,2013-03-25 10:47:00,
2013-03-25 06:52:00,38.0,25.8,29.57,ENE,77,10.0,13.0,61,0.00,,---,0.00,VWS V14.01,2013-03-25 10:52:00,
2013-03-25 06:57:00,38.0,25.8,29.57,East,80,8.0,17.0,61,0.00,,---,0.00,VWS V14.01,2013-03-25 10:57:00,
2013-03-25 07:00:00,38.0,25.8,29.57,ENE,72,11.0,17.0,61,0.00,,---,0.00,VWS V14.01,2013-03-25 11:00:00,
2013-03-25 07:02:00,38.0,25.8,29.57,ENE,75,11.0,12.0,61,0.00,,---,0.00,VWS V14.01,2013-03-25 11:02:00,
2013-03-25 07:08:00,38.1,26.2,29.57,East,84,10.0,13.0,62,0.00,,---,0.00,VWS V14.01,2013-03-25 11:08:00,
2013-03-25 07:13:00,38.1,26.2,29.57,NE,46,7.0,13.0,62,0.00,,---,0.00,VWS V14.01,2013-03-25 11:13:00,
2013-03-25 07:15:00,38.0,26.1,29.57,NE,56,5.0,15.0,62,0.00,,---,0.00,VWS V14.01,2013-03-25 11:15:00,
2013-03-25 07:18:00,38.1,26.2,29.57,NE,34,9.0,15.0,62,0.00,,---,0.00,VWS V14.01,2013-03-25 11:18:00,
2013-03-25 07:23:00,38.1,26.2,29.57,ENE,71,11.0,15.0,62,0.00,,---,0.00,VWS V14.01,2013-03-25 11:23:00,
2013-03-25 07:29:00,38.2,26.7,29.57,East,89,6.0,15.0,63,0.00,,---,0.00,VWS V14.01,2013-03-25 11:29:00,
2013-03-25 07:30:00,38.2,26.7,29.57,East,83,13.0,15.0,63,0.00,,---,0.00,VWS V14.01,2013-03-25 11:30:00,
2013-03-25 07:34:00,38.2,26.7,29.57,ESE,107,7.0,14.0,63,0.00,,---,0.00,VWS V14.01,2013-03-25 11:34:00,
2013-03-25 07:39:00,38.2,26.7,29.57,ENE,75,10.0,17.0,63,0.00,,---,0.00,VWS V14.01,2013-03-25 11:39:00,
2013-03-25 07:44:00,38.3,26.8,29.58,NE,38,7.0,17.0,63,0.00,,---,0.00,VWS V14.01,2013-03-25 11:44:00,
2013-03-25 07:45:00,38.2,26.7,29.58,NE,52,4.0,17.0,63,0.00,,---,0.00,VWS V14.01,2013-03-25 11:45:00,
2013-03-25 07:50:00,38.3,26.8,29.58,NE,44,6.0,12.0,63,0.00,,---,0.00,VWS V14.01,2013-03-25 11:50:00,
2013-03-25 07:55:00,38.3,26.8,29.58,ENE,73,5.0,12.0,63,0.00,,---,0.00,VWS V14.01,2013-03-25 11:55:00,
2013-03-25 08:00:00,38.3,26.8,29.59,SE,124,7.0,12.0,63,0.00,,---,0.00,VWS V14.01,2013-03-25 12:00:00,
2013-03-25 08:05:00,38.3,27.2,29.59,ENE,76,5.0,14.0,64,0.00,,---,0.00,VWS V14.01,2013-03-25 12:05:00,
2013-03-25 08:10:00,38.3,26.8,29.59,ENE,65,4.0,14.0,63,0.00,,---,0.00,VWS V14.01,2013-03-25 12:10:00,
2013-03-25 08:15:00,38.3,26.8,29.59,ENE,69,9.0,15.0,63,0.00,,---,0.00,VWS V14.01,2013-03-25 12:15:00,
2013-03-25 08:21:00,38.3,27.2,29.59,NE,53,5.0,13.0,64,0.00,,---,0.00,VWS V14.01,2013-03-25 12:21:00,
2013-03-25 08:27:00,38.3,26.8,29.59,East,93,10.0,14.0,63,0.00,,---,0.00,VWS V14.01,2013-03-25 12:27:00,
2013-03-25 08:30:00,38.4,26.9,29.59,ESE,113,3.0,14.0,63,0.00,,---,0.00,VWS V14.01,2013-03-25 12:30:00,
2013-03-25 08:32:00,38.4,26.9,29.59,ENE,76,8.0,15.0,63,0.00,,---,0.00,VWS V14.01,2013-03-25 12:32:00,
2013-03-25 08:37:00,38.4,26.5,29.59,ENE,65,4.0,15.0,62,0.00,,---,0.00,VWS V14.01,2013-03-25 12:37:00,
2013-03-25 08:42:00,38.3,26.4,29.58,NE,55,9.0,16.0,62,0.00,,---,0.00,VWS V14.01,2013-03-25 12:42:00,
2013-03-25 08:45:00,38.3,26.4,29.58,ENE,65,7.0,17.0,62,0.00,,---,0.00,VWS V14.01,2013-03-25 12:45:00,
2013-03-25 08:47:00,38.3,26.4,29.58,ENE,77,4.0,17.0,62,0.00,,---,0.00,VWS V14.01,2013-03-25 12:47:00,
2013-03-25 08:52:00,38.4,26.5,29.58,ENE,77,9.0,17.0,62,0.00,,---,0.00,VWS V14.01,2013-03-25 12:52:00,
2013-03-25 08:58:00,38.5,26.2,29.58,East,85,11.0,17.0,61,0.00,,---,0.00,VWS V14.01,2013-03-25 12:58:00,
2013-03-25 09:00:00,38.4,26.1,29.58,ENE,69,10.0,17.0,61,0.00,,---,0.00,VWS V14.01,2013-03-25 13:00:00,
2013-03-25 09:03:00,38.4,26.1,29.58,ENE,72,5.0,12.0,61,0.00,,---,0.00,VWS V14.01,2013-03-25 13:03:00,
2013-03-25 09:08:00,38.4,26.1,29.58,ENE,75,13.0,19.0,61,0.00,,---,0.00,VWS V14.01,2013-03-25 13:08:00,
2013-03-25 09:13:00,38.2,26.3,29.58,East,97,14.0,19.0,62,0.00,,---,0.00,VWS V14.01,2013-03-25 13:13:00,
2013-03-25 09:15:00,38.0,26.5,29.58,ENE,67,12.0,19.0,63,0.00,,---,0.00,VWS V14.01,2013-03-25 13:15:00,
2013-03-25 09:18:00,37.8,26.7,29.58,East,98,15.0,15.0,64,0.00,,---,0.00,VWS V14.01,2013-03-25 13:18:00,
2013-03-25 09:24:00,37.3,26.3,29.58,East,83,7.0,19.0,64,0.00,,---,0.00,VWS V14.01,2013-03-25 13:24:00,
2013-03-25 09:29:00,37.3,26.6,29.57,NE,56,13.0,21.0,65,0.00,,---,0.00,VWS V14.01,2013-03-25 13:29:00,
2013-03-25 09:30:00,37.2,26.5,29.57,ENE,64,11.0,21.0,65,0.00,,---,0.00,VWS V14.01,2013-03-25 13:30:00,
2013-03-25 09:34:00,37.1,26.4,29.57,ENE,76,3.0,14.0,65,0.00,,---,0.00,VWS V14.01,2013-03-25 13:34:00,
2013-03-25 09:39:00,37.0,26.3,29.57,East,83,10.0,22.0,65,0.00,,---,0.00,VWS V14.01,2013-03-25 13:39:00,
2013-03-25 09:44:00,36.8,26.1,29.57,NE,52,10.0,22.0,65,0.00,,---,0.00,VWS V14.01,2013-03-25 13:44:00,
2013-03-25 09:45:00,36.8,26.1,29.57,ENE,70,13.0,22.0,65,0.00,,---,0.00,VWS V14.01,2013-03-25 13:45:00,
2013-03-25 09:50:00,36.9,26.2,29.57,NE,55,15.0,19.0,65,0.00,,---,0.00,VWS V14.01,2013-03-25 13:50:00,
2013-03-25 09:55:00,36.8,26.1,29.57,ENE,71,7.0,20.0,65,0.00,,---,0.00,VWS V14.01,2013-03-25 13:55:00,
2013-03-25 10:00:00,36.6,26.7,29.57,East,94,5.0,20.0,67,0.00,,---,0.00,VWS V14.01,2013-03-25 14:00:00,
2013-03-25 10:05:00,35.8,26.3,29.57,ENE,75,15.0,20.0,68,0.00,,---,0.00,VWS V14.01,2013-03-25 14:05:00,
2013-03-25 10:10:00,35.2,26.8,29.57,ENE,72,17.0,20.0,71,0.00,,---,0.00,VWS V14.01,2013-03-25 14:10:00,
2013-03-25 10:15:00,34.8,26.7,29.57,ENE,59,19.0,22.0,72,0.00,,---,0.00,VWS V14.01,2013-03-25 14:15:00,
2013-03-25 10:16:00,34.8,26.7,29.57,ENE,67,14.0,20.0,72,0.00,,---,0.00,VWS V14.01,2013-03-25 14:16:00,
2013-03-25 10:21:00,34.5,27.1,29.57,ENE,76,9.0,19.0,74,0.00,,---,0.00,VWS V14.01,2013-03-25 14:21:00,
2013-03-25 10:26:00,34.5,27.1,29.57,ENE,65,5.0,19.0,74,0.00,,---,0.00,VWS V14.01,2013-03-25 14:26:00,
2013-03-25 10:30:00,34.4,27.3,29.57,East,84,11.0,19.0,75,0.00,,---,0.00,VWS V14.01,2013-03-25 14:30:00,
2013-03-25 10:31:00,34.4,27.3,29.57,ENE,76,11.0,13.0,75,0.00,,---,0.00,VWS V14.01,2013-03-25 14:31:00,
2013-03-25 10:37:00,34.5,27.4,29.57,NE,52,9.0,16.0,75,0.00,,---,0.00,VWS V14.01,2013-03-25 14:37:00,
2013-03-25 10:42:00,34.8,28.0,29.57,East,88,14.0,16.0,76,0.00,,---,0.00,VWS V14.01,2013-03-25 14:42:00,
2013-03-25 10:45:00,34.8,28.0,29.56,ENE,76,3.0,16.0,76,0.01,,---,0.01,VWS V14.01,2013-03-25 14:45:00,
2013-03-25 10:47:00,34.8,28.0,29.57,ENE,64,4.0,7.0,76,0.01,,---,0.01,VWS V14.01,2013-03-25 14:47:00,
2013-03-25 10:52:00,34.8,28.0,29.56,NE,53,17.0,23.0,76,0.01,,---,0.01,VWS V14.01,2013-03-25 14:52:00,
2013-03-25 10:57:00,34.4,27.6,29.56,ENE,62,5.0,23.0,76,0.01,,---,0.01,VWS V14.01,2013-03-25 14:57:00,
2013-03-25 11:00:00,34.4,28.0,29.56,NE,51,11.0,23.0,77,0.01,,---,0.01,VWS V14.01,2013-03-25 15:00:00,
2013-03-25 11:03:00,34.3,27.9,29.56,ENE,62,10.0,14.0,77,0.01,,---,0.01,VWS V14.01,2013-03-25 15:03:00,
2013-03-25 11:08:00,34.0,27.9,29.56,NE,38,4.0,15.0,78,0.01,,---,0.01,VWS V14.01,2013-03-25 15:08:00,
2013-03-25 11:13:00,33.6,27.8,29.56,East,88,14.0,19.0,79,0.01,,---,0.01,VWS V14.01,2013-03-25 15:13:00,
2013-03-25 11:15:00,33.5,27.7,29.56,NE,49,7.0,19.0,79,0.01,,---,0.01,VWS V14.01,2013-03-25 15:15:00,
2013-03-25 11:18:00,33.4,27.6,29.56,ENE,59,13.0,17.0,79,0.02,,---,0.02,VWS V14.01,2013-03-25 15:18:00,
2013-03-25 11:23:00,33.2,27.7,29.56,ENE,65,12.0,17.0,80,0.02,,---,0.02,VWS V14.01,2013-03-25 15:23:00,
2013-03-25 11:28:00,33.0,27.5,29.55,ENE,71,11.0,17.0,80,0.02,,---,0.02,VWS V14.01,2013-03-25 15:28:00,
2013-03-25 11:30:00,32.9,27.7,29.55,ENE,78,9.0,17.0,81,0.02,,---,0.02,VWS V14.01,2013-03-25 15:30:00,
2013-03-25 11:34:00,32.8,27.6,29.55,NE,50,5.0,12.0,81,0.02,,---,0.02,VWS V14.01,2013-03-25 15:34:00,
2013-03-25 11:39:00,32.7,27.8,29.55,East,82,15.0,15.0,82,0.02,,---,0.02,VWS V14.01,2013-03-25 15:39:00,
2013-03-25 11:44:00,32.6,27.7,29.55,NNE,14,3.0,17.0,82,0.03,,---,0.03,VWS V14.01,2013-03-25 15:44:00,
2013-03-25 11:45:00,32.6,27.7,29.55,East,80,5.0,17.0,82,0.03,,---,0.03,VWS V14.01,2013-03-25 15:45:00,
2013-03-25 11:49:00,32.6,28.0,29.54,NE,56,4.0,8.0,83,0.02,,---,0.03,VWS V14.01,2013-03-25 15:49:00,
2013-03-25 11:55:00,32.6,28.0,29.54,NNE,31,5.0,11.0,83,0.02,,---,0.03,VWS V14.01,2013-03-25 15:55:00,
2013-03-25 12:00:00,32.6,28.0,29.54,ENE,71,7.0,14.0,83,0.03,,---,0.04,VWS V14.01,2013-03-25 16:00:00,
2013-03-25 12:05:00,32.5,28.2,29.54,ENE,65,4.0,7.0,84,0.03,,---,0.04,VWS V14.01,2013-03-25 16:05:00,
2013-03-25 12:10:00,32.5,28.2,29.54,East,84,7.0,9.0,84,0.03,,---,0.04,VWS V14.01,2013-03-25 16:10:00,
2013-03-25 12:15:00,32.5,28.2,29.53,ENE,71,9.0,10.0,84,0.04,,---,0.05,VWS V14.01,2013-03-25 16:15:00,
2013-03-25 12:21:00,32.5,28.2,29.53,NNE,26,4.0,14.0,84,0.04,,---,0.05,VWS V14.01,2013-03-25 16:21:00,
2013-03-25 12:27:00,32.5,28.5,29.53,NE,54,9.0,14.0,85,0.05,,---,0.06,VWS V14.01,2013-03-25 16:27:00,
2013-03-25 12:30:00,32.5,28.5,29.53,NNE,24,3.0,14.0,85,0.05,,---,0.06,VWS V14.01,2013-03-25 16:30:00,
2013-03-25 12:32:00,32.5,28.5,29.53,NE,37,3.0,5.0,85,0.04,,---,0.06,VWS V14.01,2013-03-25 16:32:00,
2013-03-25 12:37:00,32.4,28.4,29.52,ENE,61,7.0,8.0,85,0.04,,---,0.06,VWS V14.01,2013-03-25 16:37:00,
2013-03-25 12:43:00,32.4,28.4,29.52,ENE,64,5.0,8.0,85,0.05,,---,0.07,VWS V14.01,2013-03-25 16:43:00,
2013-03-25 12:45:00,32.3,28.3,29.52,NE,49,4.0,8.0,85,0.05,,---,0.07,VWS V14.01,2013-03-25 16:45:00,
2013-03-25 12:48:00,32.3,28.3,29.51,NE,45,6.0,7.0,85,0.04,,---,0.07,VWS V14.01,2013-03-25 16:48:00,
2013-03-25 12:53:00,32.4,28.4,29.51,ENE,64,7.0,8.0,85,0.04,,---,0.07,VWS V14.01,2013-03-25 16:53:00,
2013-03-25 12:58:00,32.4,28.7,29.51,ENE,57,4.0,8.0,86,0.05,,---,0.08,VWS V14.01,2013-03-25 16:58:00,
2013-03-25 13:00:00,32.4,28.7,29.50,NNW,342,3.0,8.0,86,0.05,,---,0.08,VWS V14.01,2013-03-25 17:00:00,
2013-03-25 13:03:00,32.5,28.8,29.50,NE,49,5.0,7.0,86,0.04,,---,0.08,VWS V14.01,2013-03-25 17:03:00,
2013-03-25 13:08:00,32.6,28.9,29.50,ENE,69,3.0,9.0,86,0.05,,---,0.09,VWS V14.01,2013-03-25 17:08:00,
2013-03-25 13:14:00,32.7,29.0,29.50,NE,56,4.0,9.0,86,0.05,,---,0.09,VWS V14.01,2013-03-25 17:14:00,
2013-03-25 13:15:00,32.8,29.1,29.49,NE,54,6.0,9.0,86,0.06,,---,0.10,VWS V14.01,2013-03-25 17:15:00,
2013-03-25 13:19:00,32.9,29.2,29.49,East,88,5.0,8.0,86,0.05,,---,0.10,VWS V14.01,2013-03-25 17:19:00,
2013-03-25 13:24:00,33.5,29.8,29.49,ENE,61,7.0,10.0,86,0.06,,---,0.11,VWS V14.01,2013-03-25 17:24:00,
2013-03-25 13:29:00,34.1,30.4,29.49,ENE,73,10.0,15.0,86,0.07,,---,0.12,VWS V14.01,2013-03-25 17:29:00,
2013-03-25 13:30:00,34.2,30.7,29.49,ENE,63,5.0,15.0,87,0.07,,---,0.12,VWS V14.01,2013-03-25 17:30:00,
2013-03-25 13:34:00,34.4,30.9,29.49,ENE,69,9.0,14.0,87,0.07,,---,0.13,VWS V14.01,2013-03-25 17:34:00,
2013-03-25 13:40:00,34.6,31.1,29.48,NE,44,6.0,14.0,87,0.08,,---,0.14,VWS V14.01,2013-03-25 17:40:00,
2013-03-25 13:45:00,35.0,31.5,29.48,NE,40,9.0,16.0,87,0.08,,---,0.14,VWS V14.01,2013-03-25 17:45:00,
2013-03-25 13:50:00,35.4,31.9,29.48,ENE,71,13.0,16.0,87,0.08,,---,0.15,VWS V14.01,2013-03-25 17:50:00,
2013-03-25 13:56:00,35.6,31.8,29.48,East,79,6.0,17.0,86,0.08,,---,0.15,VWS V14.01,2013-03-25 17:56:00,
2013-03-25 14:00:00,35.8,32.0,29.48,ENE,71,5.0,17.0,86,0.08,,---,0.15,VWS V14.01,2013-03-25 18:00:00,
2013-03-25 14:01:00,35.8,32.0,29.48,NE,55,5.0,17.0,86,0.08,,---,0.15,VWS V14.01,2013-03-25 18:01:00,
2013-03-25 14:07:00,35.7,31.6,29.48,NNE,31,10.0,21.0,85,0.07,,---,0.15,VWS V14.01,2013-03-25 18:07:00,
2013-03-25 14:12:00,35.5,31.1,29.48,ENE,69,7.0,21.0,84,0.07,,---,0.15,VWS V14.01,2013-03-25 18:12:00,
2013-03-25 14:15:00,35.3,31.0,29.47,ENE,71,7.0,21.0,84,0.08,,---,0.16,VWS V14.01,2013-03-25 18:15:00,
2013-03-25 14:18:00,35.2,30.9,29.47,ENE,76,7.0,10.0,84,0.06,,---,0.16,VWS V14.01,2013-03-25 18:18:00,
2013-03-25 14:23:00,35.2,30.9,29.48,ENE,76,10.0,14.0,84,0.06,,---,0.16,VWS V14.01,2013-03-25 18:23:00,
2013-03-25 14:28:00,35.4,31.1,29.48,ENE,63,13.0,16.0,84,0.06,,---,0.16,VWS V14.01,2013-03-25 18:28:00,
2013-03-25 14:30:00,35.4,31.1,29.48,ENE,67,5.0,16.0,84,0.06,,---,0.16,VWS V14.01,2013-03-25 18:30:00,
2013-03-25 14:33:00,35.6,31.2,29.47,ENE,75,7.0,11.0,84,0.04,,---,0.16,VWS V14.01,2013-03-25 18:33:00,
2013-03-25 14:39:00,35.4,30.8,29.47,ENE,69,14.0,18.0,83,0.04,,---,0.16,VWS V14.01,2013-03-25 18:39:00,
2013-03-25 14:44:00,35.4,30.8,29.47,ENE,59,18.0,23.0,83,0.05,,---,0.17,VWS V14.01,2013-03-25 18:44:00,
2013-03-25 14:45:00,35.3,30.4,29.47,ENE,67,9.0,23.0,82,0.05,,---,0.17,VWS V14.01,2013-03-25 18:45:00,
2013-03-25 14:49:00,35.3,30.4,29.47,ENE,71,13.0,23.0,82,0.03,,---,0.17,VWS V14.01,2013-03-25 18:49:00,
2013-03-25 14:55:00,35.3,30.4,29.47,ENE,71,5.0,23.0,82,0.03,,---,0.17,VWS V14.01,2013-03-25 18:55:00,
2013-03-25 15:00:00,35.2,30.3,29.47,NE,56,10.0,23.0,82,0.03,,---,0.17,VWS V14.01,2013-03-25 19:00:00,
2013-03-25 15:05:00,35.3,30.4,29.47,ENE,64,4.0,11.0,82,0.02,,---,0.17,VWS V14.01,2013-03-25 19:05:00,
2013-03-25 15:10:00,35.3,30.4,29.47,ENE,61,12.0,17.0,82,0.02,,---,0.17,VWS V14.01,2013-03-25 19:10:00,
2013-03-25 15:15:00,35.2,30.3,29.47,ENE,64,5.0,17.0,82,0.02,,---,0.17,VWS V14.01,2013-03-25 19:15:00,
2013-03-25 15:21:00,35.2,30.3,29.47,East,82,8.0,12.0,82,0.02,,---,0.18,VWS V14.01,2013-03-25 19:21:00,
2013-03-25 15:27:00,35.2,30.6,29.47,NE,40,3.0,12.0,83,0.02,,---,0.18,VWS V14.01,2013-03-25 19:27:00,
2013-03-25 15:30:00,35.1,30.5,29.47,NE,40,4.0,12.0,83,0.02,,---,0.18,VWS V14.01,2013-03-25 19:30:00,
2013-03-25 15:32:00,35.1,30.5,29.47,ENE,68,1.0,5.0,83,0.02,,---,0.18,VWS V14.01,2013-03-25 19:32:00,
2013-03-25 15:37:00,35.1,30.5,29.47,East,83,6.0,7.0,83,0.02,,---,0.18,VWS V14.01,2013-03-25 19:37:00,
2013-03-25 15:42:00,35.2,30.6,29.47,NNW,345,2.0,7.0,83,0.02,,---,0.18,VWS V14.01,2013-03-25 19:42:00,
2013-03-25 15:45:00,35.2,30.6,29.47,NNE,12,3.0,7.0,83,0.02,,---,0.18,VWS V14.01,2013-03-25 19:45:00,
2013-03-25 15:48:00,35.2,30.6,29.47,North,5,4.0,4.0,83,0.01,,---,0.18,VWS V14.01,2013-03-25 19:48:00,
2013-03-25 15:53:00,35.3,31.0,29.47,NE,44,0.0,7.0,84,0.01,,---,0.18,VWS V14.01,2013-03-25 19:53:00,
2013-03-25 15:59:00,35.3,31.0,29.47,NE,54,3.0,7.0,84,0.02,,---,0.19,VWS V14.01,2013-03-25 19:59:00,
2013-03-25 16:00:00,35.3,31.0,29.47,NE,54,0.0,7.0,84,0.02,,---,0.19,VWS V14.01,2013-03-25 20:00:00,
2013-03-25 16:04:00,35.3,31.0,29.47,NE,49,5.0,7.0,84,0.02,,---,0.19,VWS V14.01,2013-03-25 20:04:00,
2013-03-25 16:09:00,35.1,30.8,29.47,NNE,24,0.0,7.0,84,0.02,,---,0.19,VWS V14.01,2013-03-25 20:09:00,
2013-03-25 16:14:00,35.3,31.0,29.47,NNE,12,3.0,7.0,84,0.02,,---,0.19,VWS V14.01,2013-03-25 20:14:00,
2013-03-25 16:15:00,35.3,31.0,29.47,NNE,21,4.0,7.0,84,0.02,,---,0.19,VWS V14.01,2013-03-25 20:15:00,
2013-03-25 16:19:00,35.3,31.0,29.47,NNE,24,1.0,4.0,84,0.02,,---,0.19,VWS V14.01,2013-03-25 20:19:00,
2013-03-25 16:24:00,35.2,30.9,29.46,NNE,19,4.0,8.0,84,0.02,,---,0.19,VWS V14.01,2013-03-25 20:24:00,
2013-03-25 16:29:00,35.2,30.9,29.46,North,11,4.0,8.0,84,0.03,,---,0.20,VWS V14.01,2013-03-25 20:29:00,
2013-03-25 16:30:00,35.2,30.9,29.46,NE,37,0.0,8.0,84,0.03,,---,0.20,VWS V14.01,2013-03-25 20:30:00,
2013-03-25 16:34:00,35.3,31.0,29.47,NE,48,2.0,5.0,84,0.02,,---,0.20,VWS V14.01,2013-03-25 20:34:00,
2013-03-25 16:39:00,35.4,31.1,29.47,NNW,335,2.0,5.0,84,0.02,,---,0.20,VWS V14.01,2013-03-25 20:39:00,
2013-03-25 16:45:00,35.4,31.4,29.47,NNE,13,4.0,7.0,85,0.02,,---,0.20,VWS V14.01,2013-03-25 20:45:00,
2013-03-25 16:50:00,35.4,31.1,29.47,NNE,24,0.0,4.0,84,0.02,,---,0.20,VWS V14.01,2013-03-25 20:50:00,
2013-03-25 16:55:00,35.6,31.5,29.46,North,5,2.0,5.0,85,0.02,,---,0.20,VWS V14.01,2013-03-25 20:55:00,
2013-03-25 17:00:00,35.6,31.5,29.46,NNE,13,3.0,7.0,85,0.02,,---,0.20,VWS V14.01,2013-03-25 21:00:00,
2013-03-25 17:05:00,35.5,31.5,29.47,NW,320,4.0,6.0,85,0.02,,---,0.21,VWS V14.01,2013-03-25 21:05:00,
2013-03-25 17:11:00,35.4,31.4,29.47,NW,318,4.0,11.0,85,0.02,,---,0.21,VWS V14.01,2013-03-25 21:11:00,
2013-03-25 17:15:00,35.5,31.5,29.47,NNW,347,3.0,11.0,85,0.02,,---,0.21,VWS V14.01,2013-03-25 21:15:00,
2013-03-25 17:16:00,35.5,31.5,29.47,NNW,347,3.0,11.0,85,0.02,,---,0.21,VWS V14.01,2013-03-25 21:16:00,
2013-03-25 17:21:00,35.5,31.5,29.47,NNW,331,2.0,6.0,85,0.02,,---,0.21,VWS V14.01,2013-03-25 21:21:00,
2013-03-25 17:27:00,35.5,31.5,29.47,NNW,344,4.0,7.0,85,0.03,,---,0.22,VWS V14.01,2013-03-25 21:27:00,
2013-03-25 17:30:00,35.3,31.2,29.47,North,355,5.0,9.0,85,0.03,,---,0.22,VWS V14.01,2013-03-25 21:30:00,
2013-03-25 17:32:00,35.3,31.2,29.47,NNW,327,4.0,6.0,85,0.02,,---,0.22,VWS V14.01,2013-03-25 21:32:00,
2013-03-25 17:37:00,35.2,31.1,29.47,NNW,339,3.0,6.0,85,0.02,,---,0.22,VWS V14.01,2013-03-25 21:37:00,
2013-03-25 17:42:00,35.2,31.1,29.47,North,360,6.0,7.0,85,0.02,,---,0.22,VWS V14.01,2013-03-25 21:42:00,
2013-03-25 17:45:00,35.3,31.2,29.47,NNW,344,4.0,7.0,85,0.02,,---,0.22,VWS V14.01,2013-03-25 21:45:00,
2013-03-25 17:47:00,35.3,31.2,29.47,NNW,342,2.0,5.0,85,0.02,,---,0.22,VWS V14.01,2013-03-25 21:47:00,
2013-03-25 17:52:00,35.4,31.6,29.47,NNW,343,3.0,6.0,86,0.03,,---,0.23,VWS V14.01,2013-03-25 21:52:00,
2013-03-25 17:57:00,35.5,31.7,29.47,NNW,345,4.0,7.0,86,0.03,,---,0.23,VWS V14.01,2013-03-25 21:57:00,
2013-03-25 18:00:00,35.4,31.6,29.48,NNW,331,4.0,7.0,86,0.03,,---,0.23,VWS V14.01,2013-03-25 22:00:00,
2013-03-25 18:03:00,35.4,31.6,29.48,North,350,5.0,7.0,86,0.03,,---,0.23,VWS V14.01,2013-03-25 22:03:00,
2013-03-25 18:08:00,35.4,31.6,29.48,NW,319,2.0,7.0,86,0.03,,---,0.23,VWS V14.01,2013-03-25 22:08:00,
2013-03-25 18:13:00,35.3,31.5,29.48,NW,306,4.0,7.0,86,0.03,,---,0.23,VWS V14.01,2013-03-25 22:13:00,
2013-03-25 18:15:00,35.3,31.5,29.48,NW,325,4.0,8.0,86,0.03,,---,0.23,VWS V14.01,2013-03-25 22:15:00,
2013-03-25 18:18:00,35.3,31.5,29.48,NNW,330,4.0,6.0,86,0.02,,---,0.23,VWS V14.01,2013-03-25 22:18:00,
2013-03-25 18:23:00,35.3,31.5,29.49,WNW,302,4.0,7.0,86,0.03,,---,0.24,VWS V14.01,2013-03-25 22:23:00,
2013-03-25 18:28:00,35.3,31.5,29.49,NNW,333,5.0,7.0,86,0.03,,---,0.24,VWS V14.01,2013-03-25 22:28:00,
2013-03-25 18:30:00,35.3,31.5,29.49,NNW,334,3.0,7.0,86,0.03,,---,0.24,VWS V14.01,2013-03-25 22:30:00,
2013-03-25 18:34:00,35.3,31.5,29.49,NW,323,3.0,6.0,86,0.02,,---,0.24,VWS V14.01,2013-03-25 22:34:00,
2013-03-25 18:39:00,35.3,31.5,29.49,NNW,338,3.0,6.0,86,0.02,,---,0.24,VWS V14.01,2013-03-25 22:39:00,
2013-03-25 18:44:00,35.2,31.4,29.49,NNW,339,5.0,8.0,86,0.02,,---,0.24,VWS V14.01,2013-03-25 22:44:00,
2013-03-25 18:45:00,35.2,31.4,29.49,NNW,336,3.0,8.0,86,0.02,,---,0.24,VWS V14.01,2013-03-25 22:45:00,
2013-03-25 18:49:00,35.3,31.5,29.50,NNW,336,3.0,4.0,86,0.02,,---,0.24,VWS V14.01,2013-03-25 22:49:00,
2013-03-25 18:54:00,35.3,31.5,29.50,NW,317,5.0,6.0,86,0.02,,---,0.24,VWS V14.01,2013-03-25 22:54:00,
2013-03-25 18:59:00,35.3,31.5,29.50,NW,325,5.0,6.0,86,0.03,,---,0.25,VWS V14.01,2013-03-25 22:59:00,
2013-03-25 19:00:00,35.3,31.5,29.50,NW,325,0.0,6.0,86,0.03,,---,0.25,VWS V14.01,2013-03-25 23:00:00,
2013-03-25 19:05:00,35.4,31.6,29.50,NW,325,2.0,3.0,86,0.02,,---,0.25,VWS V14.01,2013-03-25 23:05:00,
2013-03-25 19:10:00,35.3,31.5,29.50,NW,325,3.0,5.0,86,0.02,,---,0.25,VWS V14.01,2013-03-25 23:10:00,
2013-03-25 19:15:00,35.4,31.6,29.50,NW,313,5.0,8.0,86,0.02,,---,0.25,VWS V14.01,2013-03-25 23:15:00,
2013-03-25 19:20:00,35.4,31.6,29.51,NW,304,4.0,6.0,86,0.02,,---,0.25,VWS V14.01,2013-03-25 23:20:00,
2013-03-25 19:25:00,35.4,31.9,29.51,NW,304,3.0,6.0,87,0.02,,---,0.25,VWS V14.01,2013-03-25 23:25:00,
2013-03-25 19:30:00,35.4,31.9,29.51,NW,304,2.0,6.0,87,0.02,,---,0.25,VWS V14.01,2013-03-25 23:30:00,
2013-03-25 19:31:00,35.4,31.9,29.51,NW,304,2.0,6.0,87,0.02,,---,0.25,VWS V14.01,2013-03-25 23:31:00,
2013-03-25 19:36:00,35.5,32.0,29.51,NW,309,4.0,5.0,87,0.01,,---,0.25,VWS V14.01,2013-03-25 23:36:00,
2013-03-25 19:42:00,35.5,32.0,29.51,WNW,300,3.0,7.0,87,0.01,,---,0.25,VWS V14.01,2013-03-25 23:42:00,
2013-03-25 19:45:00,35.6,32.1,29.51,WNW,287,4.0,7.0,87,0.01,,---,0.25,VWS V14.01,2013-03-25 23:45:00,
2013-03-25 19:47:00,35.6,32.1,29.52,WNW,299,4.0,5.0,87,0.01,,---,0.25,VWS V14.01,2013-03-25 23:47:00,
2013-03-25 19:52:00,35.6,32.1,29.52,NNW,330,2.0,7.0,87,0.01,,---,0.25,VWS V14.01,2013-03-25 23:52:00,
2013-03-25 19:57:00,35.7,32.2,29.52,NW,324,2.0,7.0,87,0.01,,---,0.25,VWS V14.01,2013-03-25 23:57:00,
2013-03-25 20:00:00,35.7,32.2,29.52,NW,324,2.0,7.0,87,0.01,,---,0.25,VWS V14.01,2013-03-26 00:00:00,
2013-03-25 20:02:00,35.7,32.2,29.52,NW,324,4.0,4.0,87,0.00,,---,0.25,VWS V14.01,2013-03-26 00:02:00,
2013-03-25 20:07:00,35.8,32.3,29.52,NW,319,3.0,6.0,87,0.00,,---,0.25,VWS V14.01,2013-03-26 00:07:00,
2013-03-25 20:12:00,35.8,32.3,29.53,NW,319,3.0,6.0,87,0.00,,---,0.25,VWS V14.01,2013-03-26 00:12:00,
2013-03-25 20:15:00,35.8,32.3,29.53,NW,313,2.0,6.0,87,0.00,,---,0.25,VWS V14.01,2013-03-26 00:15:00,
2013-03-25 20:18:00,35.8,32.3,29.53,NW,315,5.0,5.0,87,0.00,,---,0.25,VWS V14.01,2013-03-26 00:18:00,
2013-03-25 20:23:00,35.8,32.3,29.53,NW,315,4.0,5.0,87,0.00,,---,0.25,VWS V14.01,2013-03-26 00:23:00,
2013-03-25 20:28:00,35.9,32.4,29.53,NW,315,3.0,5.0,87,0.00,,---,0.25,VWS V14.01,2013-03-26 00:28:00,
2013-03-25 20:30:00,35.9,32.4,29.54,NW,315,2.0,5.0,87,0.00,,---,0.25,VWS V14.01,2013-03-26 00:30:00,
2013-03-25 20:33:00,35.9,32.4,29.54,NW,315,3.0,4.0,87,0.00,,---,0.25,VWS V14.01,2013-03-26 00:33:00,
2013-03-25 20:38:00,35.9,32.4,29.54,NW,315,2.0,4.0,87,0.00,,---,0.25,VWS V14.01,2013-03-26 00:38:00,
2013-03-25 20:44:00,36.0,32.5,29.54,NW,315,1.0,4.0,87,0.00,,---,0.25,VWS V14.01,2013-03-26 00:44:00,
2013-03-25 20:45:00,36.0,32.5,29.54,NW,315,2.0,4.0,87,0.00,,---,0.25,VWS V14.01,2013-03-26 00:45:00,
2013-03-25 20:49:00,36.0,32.5,29.55,NW,321,9.0,9.0,87,0.00,,---,0.25,VWS V14.01,2013-03-26 00:49:00,
2013-03-25 20:54:00,36.2,32.7,29.55,NW,325,3.0,9.0,87,0.00,,---,0.25,VWS V14.01,2013-03-26 00:54:00,
2013-03-25 20:59:00,36.2,32.7,29.55,NNW,331,4.0,9.0,87,0.00,,---,0.25,VWS V14.01,2013-03-26 00:59:00,
2013-03-25 21:00:00,36.2,32.7,29.55,NNW,331,2.0,9.0,87,0.00,,---,0.25,VWS V14.01,2013-03-26 01:00:00,
2013-03-25 21:04:00,36.2,32.7,29.55,NNW,330,0.0,2.0,87,0.00,,---,0.25,VWS V14.01,2013-03-26 01:04:00,
2013-03-25 21:09:00,36.2,32.7,29.56,NNW,346,3.0,4.0,87,0.00,,---,0.25,VWS V14.01,2013-03-26 01:09:00,
2013-03-25 21:15:00,36.2,32.7,29.56,NNW,343,3.0,7.0,87,0.00,,---,0.25,VWS V14.01,2013-03-26 01:15:00,
2013-03-25 21:20:00,36.3,32.8,29.56,NNW,344,0.0,5.0,87,0.00,,---,0.25,VWS V14.01,2013-03-26 01:20:00,
2013-03-25 21:25:00,36.2,32.4,29.57,NNW,342,2.0,5.0,86,0.00,,---,0.25,VWS V14.01,2013-03-26 01:25:00,
2013-03-25 21:30:00,36.2,32.4,29.57,NNW,342,4.0,5.0,86,0.00,,---,0.25,VWS V14.01,2013-03-26 01:30:00,
2013-03-25 21:35:00,36.2,32.4,29.57,NNW,340,5.0,6.0,86,0.01,,---,0.26,VWS V14.01,2013-03-26 01:35:00,
2013-03-25 21:40:00,36.2,32.4,29.57,NNW,327,4.0,9.0,86,0.01,,---,0.26,VWS V14.01,2013-03-26 01:40:00,
2013-03-25 21:45:00,36.1,32.3,29.57,NNW,332,1.0,9.0,86,0.01,,---,0.26,VWS V14.01,2013-03-26 01:45:00,
2013-03-25 21:46:00,36.1,32.3,29.57,NNW,332,2.0,9.0,86,0.01,,---,0.26,VWS V14.01,2013-03-26 01:46:00,
2013-03-25 21:51:00,36.1,32.3,29.57,NNW,340,4.0,10.0,86,0.01,,---,0.26,VWS V14.01,2013-03-26 01:51:00,
2013-03-25 21:56:00,36.0,32.2,29.58,North,360,1.0,10.0,86,0.01,,---,0.26,VWS V14.01,2013-03-26 01:56:00,
2013-03-25 22:00:00,36.0,32.2,29.58,North,355,0.0,11.0,86,0.01,,---,0.26,VWS V14.01,2013-03-26 02:00:00,
2013-03-25 22:01:00,36.0,32.2,29.58,North,355,0.0,11.0,86,0.01,,---,0.26,VWS V14.01,2013-03-26 02:01:00,
2013-03-25 22:06:00,35.9,31.8,29.58,NNE,13,3.0,7.0,85,0.01,,---,0.26,VWS V14.01,2013-03-26 02:06:00,
2013-03-25 22:11:00,35.9,31.8,29.58,NNE,13,3.0,7.0,85,0.01,,---,0.26,VWS V14.01,2013-03-26 02:11:00,
2013-03-25 22:15:00,35.7,31.6,29.58,NW,317,1.0,7.0,85,0.01,,---,0.26,VWS V14.01,2013-03-26 02:15:00,
2013-03-25 22:17:00,35.7,31.6,29.58,NW,319,4.0,4.0,85,0.01,,---,0.26,VWS V14.01,2013-03-26 02:17:00,
2013-03-25 22:22:00,35.6,31.5,29.58,NW,321,3.0,5.0,85,0.01,,---,0.26,VWS V14.01,2013-03-26 02:22:00,
2013-03-25 22:27:00,35.5,31.5,29.58,NW,321,3.0,5.0,85,0.01,,---,0.26,VWS V14.01,2013-03-26 02:27:00,
2013-03-25 22:30:00,35.5,31.5,29.58,NW,321,2.0,5.0,85,0.01,,---,0.26,VWS V14.01,2013-03-26 02:30:00,
2013-03-25 22:32:00,35.5,31.5,29.58,NW,321,2.0,4.0,85,0.01,,---,0.26,VWS V14.01,2013-03-26 02:32:00,
2013-03-25 22:37:00,35.4,31.4,29.58,NW,321,2.0,4.0,85,0.01,,---,0.26,VWS V14.01,2013-03-26 02:37:00,
2013-03-25 22:43:00,35.3,31.2,29.58,NW,321,2.0,4.0,85,0.01,,---,0.26,VWS V14.01,2013-03-26 02:43:00,
2013-03-25 22:45:00,35.3,31.2,29.58,NW,321,2.0,4.0,85,0.01,,---,0.26,VWS V14.01,2013-03-26 02:45:00,
2013-03-25 22:48:00,35.3,31.2,29.58,NW,321,0.0,3.0,85,0.00,,---,0.26,VWS V14.01,2013-03-26 02:48:00,
2013-03-25 22:53:00,35.2,31.1,29.58,NW,321,2.0,3.0,85,0.00,,---,0.26,VWS V14.01,2013-03-26 02:53:00,
2013-03-25 22:58:00,35.2,31.1,29.58,NW,321,0.0,3.0,85,0.00,,---,0.26,VWS V14.01,2013-03-26 02:58:00,
2013-03-25 23:00:00,35.2,31.1,29.58,NW,321,2.0,3.0,85,0.00,,---,0.26,VWS V14.01,2013-03-26 03:00:00,
2013-03-25 23:03:00,35.1,31.0,29.58,NW,321,0.0,2.0,85,0.00,,---,0.26,VWS V14.01,2013-03-26 03:03:00,
2013-03-25 23:09:00,35.1,31.0,29.58,NW,321,0.0,2.0,85,0.00,,---,0.26,VWS V14.01,2013-03-26 03:09:00,
2013-03-25 23:14:00,35.1,31.0,29.58,NW,321,0.0,2.0,85,0.00,,---,0.26,VWS V14.01,2013-03-26 03:14:00,
2013-03-25 23:15:00,35.1,31.0,29.58,NW,321,0.0,2.0,85,0.00,,---,0.26,VWS V14.01,2013-03-26 03:15:00,
2013-03-25 23:19:00,35.0,31.0,29.58,NW,321,0.0,0.0,85,0.00,,---,0.26,VWS V14.01,2013-03-26 03:19:00,
2013-03-25 23:24:00,35.0,31.0,29.59,NW,321,0.0,0.0,85,0.00,,---,0.26,VWS V14.01,2013-03-26 03:24:00,
2013-03-25 23:29:00,35.0,31.0,29.59,NW,321,2.0,2.0,85,0.00,,---,0.26,VWS V14.01,2013-03-26 03:29:00,
2013-03-25 23:30:00,35.0,31.0,29.59,NW,321,2.0,3.0,85,0.00,,---,0.26,VWS V14.01,2013-03-26 03:30:00,
2013-03-25 23:34:00,35.1,31.0,29.59,NW,321,3.0,4.0,85,0.00,,---,0.26,VWS V14.01,2013-03-26 03:34:00,
2013-03-25 23:40:00,35.1,31.0,29.59,NW,321,2.0,4.0,85,0.00,,---,0.26,VWS V14.01,2013-03-26 03:40:00,
2013-03-25 23:45:00,35.2,31.1,29.59,NW,321,0.0,4.0,85,0.00,,---,0.26,VWS V14.01,2013-03-26 03:45:00,
2013-03-25 23:50:00,35.2,31.1,29.60,NW,321,2.0,5.0,85,0.00,,---,0.26,VWS V14.01,2013-03-26 03:50:00,
2013-03-25 23:55:00,35.3,31.2,29.60,NW,321,0.0,5.0,85,0.00,,---,0.26,VWS V14.01,2013-03-26 03:55:00,